Dewpoint
68 70 70 68 67 67 67 67 68 69 69 69 68 67 66 65 64 63 62 60 59 61 62 65 67 67 66 65 65 64 63 62 59 59 59 60 59 60 62 61 62 63 59
69 70 70 68 67 67 66 66 66 68 68 68 68 66 66 64 63 61 60 59 59 60 61 63 64 65 64 63 62 61 57 57 58 59 60 59 60 60 61 61 61 59 58
70 70 69 69 68 67 65 64 64 65 67 68 67 66 65 64 62 60 58 58 59 60 61 62 63 63 62 61 60 60 59 59 60 60 61 58 58 58 59 61 60 60 60
69 69 69 69 68 66 65 64 63 64 64 65 67 66 65 62 60 58 58 58 59 60 60 61 61 61 61 61 62 63 63 63 63 63 60 59 58 59 57 57 60 62 62
69 69 69 69 68 66 65 63 65 64 65 66 65 64 63 61 60 60 58 59 60 61 61 61 61 61 61 62 62 62 62 62 63 61 59 58 60 63 62 62 61 60 60
68 68 69 69 68 67 65 64 64 61 62 62 63 62 62 61 61 62 60 60 61 62 62 63 62 63 63 63 63 63 63 64 62 60 59 59 62 64 62 60 64 64 64
68 69 70 69 68 67 65 66 65 62 62 62 62 61 61 61 62 63 62 61 62 63 63 64 64 64 65 65 65 64 63 61 57 62 62 63 63 63 62 59 65 63 63
68 69 69 69 69 68 66 65 65 64 63 63 63 62 62 62 62 64 63 63 63 63 64 64 65 66 66 65 63 60 57 56 54 58 58 59 60 60 61 59 61 60 63
68 68 69 69 69 68 68 65 65 65 64 65 65 65 65 65 63 64 63 64 63 64 65 66 66 65 64 60 54 51 51 52 54 54 53 54 54 54 57 59 59 62 62
68 68 69 69 69 68 68 67 65 65 65 65 66 65 64 66 66 65 65 65 63 65 65 65 64 62 58 52 48 49 41 48 51 52 53 54 52 53 55 57 61 62 61
67 68 69 69 68 68 67 66 66 65 66 65 66 63 65 66 66 66 65 65 65 66 64 63 60 56 52 49 46 43 34 40 49 51 52 51 48 59 61 61 60 60 59
66 67 68 68 68 67 67 66 65 65 64 64 65 63 62 65 66 65 65 65 65 65 63 59 53 49 43 40 30 32 29 43 50 55 58 56 58 60 59 58 59 58 56
66 66 67 67 67 67 66 66 65 64 63 63 63 63 61 62 64 64 63 64 64 63 60 54 47 39 31 27 25 26 28 47 52 56 59 58 56 58 56 55 54 54 53
66 66 66 67 67 66 66 66 65 64 63 62 62 62 61 59 61 62 62 62 62 60 55 51 40 28 25 24 22 24 27 46 51 54 56 57 56 54 53 50 48 46 45
61 66 66 67 67 66 66 65 64 63 62 61 60 61 59 58 60 60 60 60 60 59 47 35 29 27 24 22 22 23 26 45 49 51 52 53 51 49 47 45 43 42 42
57 60 65 66 66 66 65 64 63 62 61 59 59 60 57 57 58 58 58 59 54 48 33 29 28 26 25 24 23 22 26 41 46 48 48 48 45 42 40 39 38 39 39
45 58 61 66 66 65 65 64 63 62 62 60 59 60 56 56 56 56 56 54 39 31 28 28 27 26 25 24 22 21 23 30 43 43 43 40 41 40 35 35 34 35 36
41 51 59 63 65 64 65 64 63 62 61 61 60 60 56 56 55 53 49 41 32 30 26 26 27 25 24 21 21 19 24 25 38 37 38 35 36 34 33 31 31 31 32
38 40 56 61 64 64 64 64 62 62 61 61 61 60 56 56 53 49 42 34 32 28 26 25 26 23 22 20 21 23 30 26 28 32 34 30 32 28 25 32 29 28 28
37 38 46 60 63 64 64 64 64 63 62 62 61 60 57 54 50 46 37 33 30 27 26 25 25 24 22 21 23 25 28 30 25 25 25 26 25 24 21 20 20 24 27
34 35 40 54 61 64 64 64 63 62 62 62 61 59 55 52 49 43 35 31 28 26 26 26 26 22 20 22 22 25 26 28 27 28 27 24 22 21 19 20 20 20 21
34 35 35 46 59 64 64 63 63 63 62 62 60 56 53 50 46 38 34 30 28 26 26 26 26 24 22 21 20 24 20 21 22 21 23 21 18 19 19 21 20 19 20
32 33 36 38 54 63 64 64 61 59 57 56 56 53 49 47 42 37 33 31 28 27 26 26 26 26 23 20 19 19 18 15 17 19 21 20 19 19 20 20 21 20 20
30 31 33 37 43 61 64 63 60 59 59 58 56 52 48 43 39 35 32 29 28 29 27 25 26 26 24 20 21 19 18 17 9 9 17 20 21 19 19 21 21 21 20
29 29 32 36 41 53 63 63 61 59 59 55 51 50 47 42 36 33 31 30 29 29 27 25 23 25 23 22 21 19 19 20 18 15 12 16 20 20 20 21 20 21 19
33 34 32 33 37 45 62 63 61 59 55 51 48 47 44 40 36 34 31 31 30 27 25 24 22 21 21 21 20 19 18 17 18 18 17 18 17 19 21 20 20 19 19
Wind_Speed
16 17 20 20 19 19 18 17 16 16 16 17 19 18 17 16 14 13 12 10 10 9 10 11 14 15 14 14 12 10 8 9 7 7 8 8 9 8 8 8 6 4 5
20 18 21 21 20 19 18 18 17 15 15 16 18 18 17 15 14 12 11 11 10 10 10 11 11 13 12 12 9 8 7 8 7 6 6 5 4 7 8 6 4 5 5
21 19 19 20 20 19 18 17 18 17 16 15 16 17 17 16 14 12 11 11 11 10 11 10 10 10 10 9 9 9 8 7 6 4 3 4 2 5 5 5 4 3 3
23 18 17 20 20 20 18 17 17 17 17 16 17 17 18 16 14 13 12 12 11 11 10 9 9 8 8 8 7 7 5 4 4 3 2 7 4 4 4 2 2 2 1
20 19 18 21 20 19 17 17 19 18 18 18 18 17 16 15 14 13 13 12 12 11 10 10 9 8 8 7 6 3 3 4 7 5 3 9 5 4 3 2 1 1 2
18 18 20 21 19 18 17 17 19 18 18 17 16 15 15 17 15 13 13 12 11 10 9 9 8 8 7 6 5 5 5 7 6 7 6 8 4 4 2 2 1 3 4
18 17 19 20 19 18 17 17 18 18 18 17 17 16 17 16 15 14 12 11 10 8 8 8 9 8 7 6 4 4 6 8 8 9 8 7 1 4 3 3 6 8 7
23 20 19 21 19 18 18 16 18 18 19 17 16 16 15 15 15 14 13 11 9 8 8 8 8 7 7 5 4 5 6 8 7 9 8 5 4 4 4 5 8 7 8
21 21 18 18 19 19 18 17 16 18 18 16 16 14 12 12 13 15 13 11 9 8 7 8 8 7 5 4 5 5 6 6 9 6 5 5 4 4 4 4 4 7 11
17 20 20 18 17 15 15 17 16 17 17 15 14 13 10 13 17 16 14 11 10 8 7 7 6 6 5 5 7 6 10 11 9 7 4 3 4 4 4 4 7 11 13
16 16 17 16 16 16 16 15 16 16 16 16 14 12 8 11 15 15 14 12 10 9 7 6 5 5 3 2 7 7 9 8 7 5 2 2 3 10 12 13 13 12 14
18 17 19 19 18 17 15 15 15 14 14 13 13 12 10 11 12 13 13 13 10 9 7 6 5 4 4 4 4 7 7 8 6 5 2 4 12 12 13 14 13 12 13
23 19 19 19 19 19 16 14 13 13 15 14 16 15 12 11 11 11 10 9 9 9 5 4 4 4 4 4 5 7 7 8 7 5 9 10 12 13 14 11 10 11 10
24 24 22 21 20 20 15 16 16 15 14 15 16 16 14 13 13 13 12 11 10 7 7 5 4 5 5 4 5 7 6 8 8 7 10 13 12 12 10 10 10 10 9
22 24 25 23 22 20 17 16 16 16 15 15 16 15 15 15 15 14 13 11 10 7 7 8 8 6 5 5 5 6 6 9 9 8 10 14 13 11 10 9 9 9 9
20 22 25 26 25 24 22 21 18 16 16 15 15 15 17 16 15 16 14 13 9 11 9 9 8 7 6 5 5 5 6 8 8 9 9 11 12 10 9 9 8 8 9
18 23 26 28 27 26 25 22 19 18 17 16 15 16 18 17 18 17 15 14 12 11 11 10 8 7 6 4 5 4 4 7 9 9 9 9 10 10 9 8 8 8 9
13 17 20 24 27 27 23 23 19 20 18 16 16 17 20 17 18 16 17 17 14 12 11 9 8 7 5 4 2 2 2 5 10 10 9 9 8 8 7 7 7 8 9
18 18 20 21 26 30 25 22 20 21 18 17 17 17 19 18 19 19 17 17 16 14 11 10 5 4 3 2 2 2 1 4 10 9 9 7 7 6 6 7 7 7 7
22 17 21 24 24 24 21 18 13 15 17 17 18 18 19 18 20 19 17 17 16 14 11 9 8 6 3 2 2 3 3 2 7 8 9 7 7 7 6 5 3 4 5
23 24 17 24 26 22 17 20 20 22 20 16 17 17 20 19 20 21 16 18 16 16 14 13 8 6 5 1 5 4 2 3 3 2 3 6 6 5 5 3 3 2 1
17 16 19 22 27 25 22 19 13 19 13 15 15 16 18 22 20 19 23 19 18 16 14 13 10 6 3 4 3 3 4 1 1 3 2 4 5 5 5 6 6 5 4
19 17 15 17 23 25 23 16 10 11 7 8 14 16 17 21 22 19 20 21 19 17 19 15 12 9 7 2 4 3 3 4 1 2 3 4 6 5 5 8 8 8 8
22 20 17 15 18 22 21 21 23 23 19 18 18 14 17 20 20 19 19 20 20 16 16 15 12 9 8 7 2 5 5 4 3 2 1 2 1 1 6 5 10 11 10
18 18 15 16 16 22 22 25 26 23 23 15 15 19 16 14 18 22 20 21 19 17 13 13 14 12 7 8 5 3 2 3 3 2 4 4 3 3 7 8 9 8 11
2 1 5 10 15 17 24 24 28 24 23 21 18 20 19 16 14 18 20 18 17 17 18 14 12 12 11 10 7 6 4 3 3 3 4 4 7 6 6 10 6 4 5
Wind_Direction
159 155 151 148 143 137 133 130 128 127 130 134 133 128 122 119 114 110 106 103 100 103 102 89 89 107 117 114 110 99 88 81 79 86 81 73 71 80 83 75 56 129 64
151 153 152 151 147 141 138 134 133 132 132 138 135 133 131 126 121 111 105 104 107 110 109 103 94 101 105 102 103 95 82 83 87 90 93 87 54 87 96 95 76 78 73
146 150 153 153 147 143 142 139 138 140 140 140 145 139 137 130 123 113 109 109 108 111 115 114 107 102 101 101 94 81 76 78 79 76 112 152 121 94 103 82 115 124 106
147 148 153 153 150 147 144 143 140 141 147 148 143 142 137 131 125 119 119 117 115 112 111 109 107 106 105 100 90 84 74 57 43 25 54 179 172 110 106 113 115 76 80
147 148 157 155 153 149 147 146 140 137 138 137 138 141 140 137 133 128 128 125 124 121 118 114 111 108 107 106 98 83 59 25 14 353 142 174 172 131 103 101 161 283 269
148 148 159 158 155 152 149 151 145 141 144 144 142 145 150 148 143 137 135 135 135 135 133 130 128 125 120 114 105 86 49 31 6 338 161 180 156 125 87 47 316 271 258
149 150 158 160 160 155 154 157 152 148 148 147 151 150 153 152 150 147 146 146 145 142 140 139 134 131 125 112 91 53 32 31 29 66 103 118 111 59 39 6 37 40 42
152 158 162 163 164 162 160 163 160 153 152 153 158 159 159 165 163 158 156 155 154 149 148 140 139 136 126 115 84 54 40 46 48 84 80 66 44 44 29 25 35 27 43
157 158 165 166 168 168 168 167 170 164 159 156 154 159 165 177 169 166 163 163 159 154 159 155 139 136 131 112 74 53 46 70 101 85 74 54 27 46 41 46 40 75 68
159 164 167 167 169 169 171 174 175 171 165 164 162 163 179 196 175 168 167 167 163 159 147 146 142 131 117 88 54 58 79 89 96 94 73 43 45 53 63 78 88 85 77
169 171 167 166 166 167 170 180 180 179 171 171 167 171 164 150 157 161 167 169 164 162 161 150 141 125 117 69 45 82 75 93 103 99 93 75 68 87 88 81 75 76 69
177 180 176 171 170 170 175 179 180 181 179 177 174 177 170 162 165 168 173 171 170 168 167 156 145 122 90 83 60 62 72 105 97 93 62 121 103 91 79 72 67 68 62
183 182 185 180 176 175 176 176 180 183 184 185 184 182 183 177 176 176 176 177 175 171 160 142 106 88 96 86 79 76 87 105 102 82 79 74 99 93 76 69 73 68 63
184 187 185 183 179 181 179 178 182 185 190 190 192 188 185 186 186 184 184 184 181 176 167 166 129 105 93 76 88 94 93 115 111 93 85 85 90 88 94 85 76 68 57
187 189 189 183 184 183 180 184 185 188 190 197 195 194 191 190 188 187 189 186 184 174 167 144 132 116 92 72 66 95 103 127 123 110 96 94 95 95 89 78 66 58 51
207 193 188 189 188 184 185 184 186 185 192 196 199 195 193 186 182 184 183 182 185 174 161 145 134 118 94 88 75 86 106 141 135 126 113 105 103 100 88 72 58 49 36
222 206 192 190 190 189 189 184 184 184 187 193 199 196 195 189 183 183 182 178 168 159 138 119 104 99 89 71 74 74 118 134 152 141 131 118 109 102 93 75 54 49 33
218 216 195 196 188 194 191 187 186 185 181 191 199 198 194 187 173 167 163 166 165 153 137 129 128 101 89 70 78 42 95 131 162 157 149 144 138 123 103 85 72 52 32
231 215 211 195 195 192 191 188 187 185 180 190 198 196 186 179 167 161 164 164 159 146 143 143 122 130 108 77 122 108 70 145 155 162 164 159 152 141 119 106 86 56 38
252 220 211 199 200 201 187 187 187 182 175 188 191 194 178 174 164 159 161 158 154 147 144 140 130 88 101 117 114 125 71 100 154 170 174 172 165 149 139 126 80 45 42
247 257 213 206 205 193 186 179 186 192 189 187 193 182 167 166 167 159 158 159 159 161 163 152 131 127 66 80 128 91 59 50 131 140 166 162 156 138 120 68 27 2 326
247 247 236 215 208 196 195 199 192 186 190 188 172 169 170 166 164 167 162 166 165 158 161 164 155 140 107 33 143 116 160 253 11 36 110 142 128 107 71 47 19 347 315
240 243 245 221 212 201 198 177 128 114 98 144 176 175 173 166 168 168 164 162 165 164 175 175 166 159 153 67 63 153 139 206 215 1 88 72 116 87 45 5 12 6 343
258 251 250 242 216 210 190 184 188 191 189 197 189 181 169 170 165 163 160 160 163 167 175 172 168 164 144 155 106 62 72 119 178 231 255 212 302 14 359 8 346 353 3
268 272 262 249 220 205 196 192 195 194 191 175 166 164 166 164 163 159 161 156 164 164 166 167 157 155 143 154 151 146 100 83 106 165 256 273 308 307 339 342 338 6 12
202 319 313 275 252 215 196 199 198 194 173 166 166 166 165 167 162 161 157 159 161 161 161 161 151 150 147 139 144 147 164 167 184 180 237 272 271 301 310 320 330 25 39